Location: Unspecified
(0.0000°N, 0.0000°E)
Time: 06:10:33
(UTC+00:00)

Courier 1B - Pass Details

Date: 25 September 2023
Orbit: 962 x 1208 km, 28.3° (Epoch: 06 December)

Event Time Altitude Azimuth Distance (km) Brightness Sun altitude
Rises 19:22:43 0° 321° (NW) 4,001 11.2 -22.8°
Reaches altitude 10° 19:26:14 10° 334° (NNW) 3,001 10.3 -23.6°
Maximum altitude 19:31:56 24° 25° (NNE) 2,091 9.0 -25.1°
Enters shadow 19:32:06 24° 27° (NNE) 2,090 9.0 -25.1°
Drops below altitude 10° 19:37:22 10° 76° (ENE) 2,860 - -26.4°
Sets 19:40:36 0° 90° (E) 3,772 - -27.2°
